Hourly Weather Roundup
Issued by NWS Central Illinois

Home | Current Version | Previous Version | Text Only | Print | Product List | Glossary On
Versions: 1 2 3 4 5 6 7 8 9 10 11 12 13 14 15 16 17 18 19 20 21 22 23 24 25 26 27 28 29 30 31 32 33 34 35 36 37 38 39 40 41 42 43 44 45 46 47 48 49 50
000
NZUS43 KILX 211410
HWRILX

Area Weather Roundup
National Weather Service Lincoln IL
800 AM CST WED FEB 21 2018

NOTE:  "FAIR" indicates few or no clouds below 12,000 feet, with
       no sigificant weather and/or obstructions to visibility.


CITY           SKY/WX    TMP DP  RH WIND       PRES   REMARKS
Bloomington    CLOUDY    27  25  92 N13       30.47R WCI  16
Champaign      PTSUNNY   31  28  89 N14       30.44R WCI  21
Danville       CLOUDY    33  32  96 N12       30.40R WCI  24
Decatur        CLOUDY    30  30 100 N12       30.46R WCI  20
Effingham      LGT RAIN  33  32  99 N7        30.46R WCI  26
Flora          LGT RAIN  35  33  92 N8        30.45R WCI  29
Galesburg      FAIR      22  18  86 NW10G16   30.55R WCI  11
Jacksonville   CLOUDY    24  19  83 N10       30.51R WCI  13
Lacon          FAIR      25  22  87 N7        30.51R WCI  17
Lawrenceville  LGT RAIN  36  34  92 N17       30.41R WCI  26
Litchfield     CLOUDY    27  24  91 N6        30.48R WCI  20
$$


CITY           SKY/WX    TMP DP  RH WIND       PRES   REMARKS
Lincoln        CLOUDY    28  25  89 N7        30.50R WCI  21
Macomb         CLOUDY    23  19  86 N13       30.56R WCI  11
Mattoon        MIX PCPN  32  30  92 N15       30.42R WCI  22
Mt Carmel AP   LGT RAIN  36  34  93 N8G18     30.42R WCI  29
Olney-Noble AP RAIN      34  32  94 N10       30.44R WCI  26
Paris AP       CLOUDY    33  32  96 N12G17    30.44R WCI  24
Peoria         FAIR      25  20  81 N8G20     30.51R WCI  16
Pontiac        CLOUDY    30  30  99 N6        30.49R WCI  24
Rantoul        CLOUDY    33  31  94 N8        30.44R WCI  25
Robinson       LGT RAIN  34  33  95 N12       30.43R WCI  25
Springfield    CLOUDY    27  23  85 N9        30.50R WCI  18
Taylorville    CLOUDY    28  25  91 CALM      30.47R
$$

...REGIONAL REPORTS...


CITY           SKY/WX    TMP DP  RH WIND       PRES   REMARKS
Chicago O`Hare CLOUDY    27  19  72 N10       30.46R WCI  17
Kankakee       PTSUNNY   31  29  95 N10       30.46R WCI  22
Moline         FAIR      22  15  75 NW12      30.55R WCI  10
Mount Sterling PTSUNNY   22  19  87 N5        30.52R WCI  16
Mount Vernon   LGT RAIN  33  32  96 VRB5      30.44R WCI  29
Pittsfield     PTSUNNY   24  20  86 N8        30.53R WCI  15
Quincy         PTSUNNY   22  17  81 N16       30.52R WCI   8
Rockford       CLOUDY    24  16  71 N9        30.51R WCI  14
$$


CITY           SKY/WX    TMP DP  RH WIND       PRES   REMARKS
Burlington     CLOUDY    20  14  77 NW12      30.56R WCI   8
Cedar Rapids   FAIR      16   8  71 N12       30.57R WCI   3
Des Moines     CLOUDY    13   6  74 N10       30.62R WCI   0
Kirksville     CLOUDY    18  15  88 N12       30.55R WCI   5
Ottumwa        MOSUNNY   17  10  74 N15       30.59R WCI   2
St Louis       CLOUDY    28  24  85 N9        30.51R WCI  19
$$


CITY           SKY/WX    TMP DP  RH WIND       PRES   REMARKS
Terre Haute    LGT RAIN  35  34  96 N8        30.41R WCI  29
Evansville     LGT RAIN  39  38  96 N9        30.41R WCI  33
Indianapolis   LGT RAIN  38  36  92 N13       30.38R WCI  30
Lafayette      CLOUDY    33  31  92 N8        30.41R WCI  26
Madison        PTSUNNY   18  12  77 NW12      30.52R WCI   5
Milwaukee      PTSUNNY   24  14  65 NW14G22   30.47R WCI  12
$$






USA.gov is the U.S. government's official web portal to all federal, state and local government web resources and services.